Regional Weather Roundup
Issued by NWS

Home | Current Version | Previous Version | Graphics & Text | Print | Product List | Glossary On
Versions: 1 2 3 4 5 6 7 8 9 10 11 12 13 14 15 16 17 18 19 20 21 22 23 24 25 26 27 28 29 30 31 32 33 34 35 36 37 38 39 40 41 42 43 44 45 46 47 48 49 50
388
ASUS45 KSLC 261810
RWRUT

UTAH REGIONAL WEATHER ROUNDUP
NATIONAL WEATHER SERVICE SALT LAKE CITY UT
1200 PM MDT FRI MAY 26 2017

UTZ001>011-023>025-261900-

NORTHERN UTAH

CITY           SKY/WX    TMP DP  RH WIND       PRES   REMARKS
BRIGHAM CITY   MOSUNNY   62  33  34 S3        29.86R
HILL AFB       PTSUNNY   59  34  38 W12       29.87R
LOGAN          MOSUNNY   62  39  42 VRB3      29.84R
OGDEN          MOSUNNY   61  35  37 W10G17    29.86R
SALT LAKE CITY PTSUNNY   61  39  44 N10       29.86R
TOOELE VALLEY  PTSUNNY   59  39  47 N5        29.88R
WENDOVER       SUNNY     65  32  29 N15G23    29.85S
WEST JORDAN    CLOUDY    60  43  53 NW15      29.87R

$$

UTZ011>015-024>027-261900-

CENTRAL/NORTHEAST UTAH

CITY           SKY/WX    TMP DP  RH WIND       PRES   REMARKS
PROVO AIRPORT  MOSUNNY   64  39  39 NW9       29.84R
MOAB/CANYONLAN SUNNY     81  19  10 S16G28    29.75F
DELTA          SUNNY     68  28  22 N7        29.84R
PRICE          MOSUNNY   67  32  27 CALM      29.83F
ROOSEVELT      SUNNY     72  34  25 NW7       29.80F
VERNAL         SUNNY     66  38  35 S6        29.79F

$$

UTZ013>016-019>022-027-261900-

SOUTHERN UTAH

CITY           SKY/WX    TMP DP  RH WIND       PRES   REMARKS
BRYCE CANYON   SUNNY     64  22  20 SW21G26   29.98R
CEDAR CITY     SUNNY     73  22  14 SW21G30   29.87R
MILFORD        SUNNY     75  21  13 S28       29.82R
ST GEORGE      MOCLDY    82  24  12 W12G18    29.78S
HANKSVILLE     SUNNY     81  19  10 SW25G36   29.78S
BLANDING       SUNNY     71  19  13 S12G26    30.02S

$$

REGIONAL REPORTS     COLORADO/ARIZONA

CITY           SKY/WX    TMP DP  RH WIND       PRES   REMARKS
CRAIG, CO      CLOUDY    66  35  31 SW25G33   29.84F
GRAND JUNCTION SUNNY     78  24  13 SW13G18   29.80F
RIFLE, CO      MOSUNNY   72  30  21 W7G17     29.84F
MONTROSE, CO   SUNNY     73  20  13 SW21G28   29.92F
CORTEZ, CO     SUNNY     72  18  13 SW15G24   29.99S
COLORADO CITY    N/A     79  27  14 SW15      29.91S
PAGE, AZ       SUNNY     79  16   9 SW8G16    29.83S
GRAND CANYON   SUNNY     67  22  18 SW20G30   30.02S
KINGMAN, AZ    SUNNY     79  33  19 SW24G31   29.88R
FLAGSTAFF, AZ  SUNNY     62  15  16 SW23G31   30.07R

$$

REGIONAL REPORTS    NEVADA/IDAHO/WYOMING

CITY           SKY/WX    TMP DP  RH WIND       PRES   REMARKS
LAS VEGAS, NV  SUNNY     80  25  13 S7        29.76S
ELY, NY        SUNNY     62  27  26 W10G17    29.92R
ELKO, NV       PTSUNNY   57  30  35 NW12      29.93R
POCATELLO, ID  CLOUDY    46  43  89 W9        29.92R
BURLEY, ID     CLOUDY    50  43  77 W7        29.91R
FORT BRIDGER,  CLOUDY    51  38  61 W17G25    29.94R
EVANSTON, WY   LGT RAIN  44  39  82 SW14      29.90S
ROCK SPRINGS,  CLOUDY    55  38  52 N5        29.87S
KEMMERER, WY     N/A     45  37  76 S6        29.91R

$$




USA.gov is the U.S. government's official web portal to all federal, state and local government web resources and services.